sat.trackr.live / text

‹ back to catalog

ONEWEB-0702

NORAD 61608 · 2024-188Q

PAYLOAD ACTIVE UNKNOWN

§ Identity

Operator
Country
UK
Launch date
2024-10-20
Launch site
AFWTR
Launch vehicle
Mass (kg)
RCS (m²)

Purposes: comms

External: N2YO · Heavens-Above · Gunter

§ Orbital elements

Epoch: 2026-09-19T13:13:46.796448Z

Period
109.80 min
Inclination
87.8985°
Eccentricity
0.0000642
Mean motion
13.11417966 rev/d
Perigee alt
1,217.2 km
Apogee alt
1,218.2 km
Semi-major
7,595.8 km
B*
-5.2874e-4
RAAN
2.2421°
Arg perigee
111.6304°
Mean anomaly
248.4892°
Rev number
9,685

§ Raw data

ONEWEB-07021 61608U 24188Q   26262.55123607 -.00000175  00000+0 -52874-3 0  99942 61608  87.8985   2.2421 0000642 111.6304 248.4892 13.11417966 96851

JSON: /api/v1/satellites/61608 · /tle

For live sub-satellite position, see the globe view (requires WebGL).

§ Visibility from observer

Set your observer location to see the next 7 days of passes ≥ 10°. The values pass through the URL so the page stays shareable.

No JS? Fill the form by hand. The geolocation button needs JavaScript.